Location: Ailly
(50.0793°N, 1.9944°E)
Time: 21:04:46
(UTC+00:00)

Okean 3 - Pass Details

Date: 15 January 2026
Orbit: 542 x 564 km, 82.5° (Epoch: 17 February)

Event Time Altitude Azimuth Distance (km) Brightness Sun altitude
Exits shadow 05:32:44 34° 347° (NNW) 924 4.2 -20.5°
Maximum altitude 05:34:26 85° 263° (W) 553 3.1 -20.3°
Drops below altitude 10° 05:38:24 10° 174° (S) 1,803 6.1 -19.6°
Sets 05:40:33 0° 173° (S) 2,690 7.1 -19.3°
